Overview Statistics Trail Chart Weather Telemetry Raw packets
 

This is the latest recevied weather packets stored in our database for station/object JA0BES-13. If no packets are shown the sender has not sent any weather packets the latest 10 day(s).

<< 12 13 14 15 16 17 18 >>
Time Temp. Humidity Pressure Rain* Wind** Luminosity Snow
1788346062 30° C 94% 1012.8 hPa 0 mm - - -
1788345462 30.56° C 94% 1012.8 hPa 0 mm - - -
1788344861 30.56° C 93% 1012.6 hPa 0 mm - - -
1788344261 30.56° C 94% 1012.5 hPa 0 mm - - -
1788343660 30.56° C 94% 1012.4 hPa 0 mm - - -
1788343066 31.11° C 92% 1012.1 hPa 0 mm - - -
1788342460 31.11° C 90% 1012 hPa 0 mm - - -
1788341860 31.67° C 90% 1012.1 hPa 0 mm - - -
1788340659 31.67° C 89% 1012 hPa 0 mm - - -
1788340058 32.22° C 89% 1012 hPa 0 mm - - -
1788339458 32.22° C 89% 1012 hPa 0 mm - - -
1788338858 32.22° C 87% 1011.8 hPa 0 mm - - -
1788338258 31.67° C 89% 1011.9 hPa 0 mm - - -
1788337657 31.67° C 87% 1011.9 hPa 0 mm - - -
1788337057 32.78° C 87% 1011.8 hPa 0 mm - - -
1788336456 32.22° C 90% 1011.7 hPa 0 mm - - -
1788335856 31.11° C 89% 1011.4 hPa 0 mm - - -
1788334653 31.11° C 88% 1011.5 hPa 0 mm - - -
1788334053 31.67° C 87% 1011.7 hPa 0 mm - - -
1788333453 31.67° C 86% 1011.7 hPa 0 mm - - -
1788332852 32.22° C 86% 1011.7 hPa 0 mm - - -
1788332252 32.22° C 85% 1011.5 hPa 0 mm - - -
1788331651 32.22° C 85% 1011.5 hPa 0 mm - - -
1788331051 32.22° C 84% 1011.3 hPa 0 mm - - -
1788330451 32.78° C 84% 1011.3 hPa 0 mm - - -

* Rain since midnight (hover to see other rain measurements)
** Current wind speed in m/s (hover to see current wind gust speed)